Location: Home
(42.5358°N, 72.7383°W)
Time: 20:02:39
(UTC-05:00)

A-11 Canister half - Pass Details

Date: 02 December 2021
Orbit: 1524 x 1684 km, 47.3° (Epoch: 23 January)

Event Time Altitude Azimuth Distance (km) Brightness Sun altitude
Rises 00:39:15 0° 212° (SSW) 4,913 - -66.1°
Reaches altitude 10° 00:42:34 10° 207° (SSW) 3,935 - -65.7°
Maximum altitude 00:52:02 47° 138° (SE) 2,130 - -64.6°
Exits shadow 01:00:57 12° 70° (ENE) 3,774 11.2 -63.5°
Drops below altitude 10° 01:01:27 10° 69° (ENE) 3,918 11.4 -63.4°
Sets 01:04:43 0° 64° (ENE) 4,892 12.0 -63.0°
